W2PJ Weather Reports


Display with metric or nautical units.
time (UTC)temp
F
wind
direction
speed
MPH
gust
MPH
rain 1hr
in
rain 24hr
in
rain mn
in
humidity
%
barometer
mb
20260502230019 41 289 0.0 4.0 0.00 0.18 0.01 68 1013.6
20260502225514 41 304 0.0 1.0 0.00 0.18 0.01 67 1013.6
20260502225017 41 297 0.0 3.0 0.00 0.18 0.01 67 1013.6
20260502224514 41 279 0.0 4.0 0.00 0.18 0.01 66 1013.5
20260502224016 41 269 0.0 7.0 0.00 0.18 0.01 66 1013.6
20260502223515 41 320 0.0 7.0 0.00 0.18 0.01 65 1013.5
20260502223015 41 268 0.0 5.0 0.00 0.18 0.01 65 1013.5
20260502222515 41 285 1.0 5.0 0.00 0.18 0.01 65 1013.6
20260502222019 42 311 0.0 4.0 0.00 0.18 0.01 65 1013.6
20260502221514 42 328 0.0 1.0 0.00 0.18 0.01 67 1013.5
20260502221014 42 285 0.0 6.0 0.00 0.18 0.01 67 1013.5
20260502220513 42 268 0.0 6.0 0.00 0.18 0.01 66 1013.5
20260502220022 42 10 0.0 6.0 0.00 0.18 0.01 65 1013.4
20260502215513 42 354 0.0 6.0 0.00 0.18 0.01 64 1013.4
20260502215013 42 292 0.0 6.0 0.00 0.18 0.01 63 1013.4
20260502214512 42 309 0.0 7.0 0.00 0.18 0.01 62 1013.4
20260502214013 42 257 1.0 7.0 0.00 0.18 0.01 60 1013.3
20260502213513 42 279 0.0 4.0 0.00 0.18 0.01 62 1013.3
20260502213025 42 279 0.0 7.0 0.00 0.18 0.01 63 1013.3
20260502212514 42 304 1.0 7.0 0.00 0.18 0.01 63 1013.4
20260502212015 42 290 0.0 0.0 0.00 0.18 0.01 66 1013.3
20260502211512 42 266 0.0 0.0 0.00 0.18 0.01 65 1013.3
20260502211011 42 328 0.0 0.0 0.00 0.18 0.01 65 1013.2
20260502210510 42 292 0.0 6.0 0.00 0.18 0.01 65 1013.3
20260502210010 42 311 0.0 6.0 0.00 0.18 0.01 65 1013.3
20260502205510 42 264 0.0 0.0 0.00 0.18 0.01 66 1013.4
20260502205011 42 301 0.0 0.0 0.00 0.18 0.01 66 1013.4
20260502204510 42 306 0.0 0.0 0.00 0.18 0.01 66 1013.3
20260502204010 42 286 0.0 0.0 0.00 0.18 0.01 67 1013.4
20260502203516 42 296 0.0 0.0 0.00 0.18 0.01 69 1013.4
20260502203009 41 262 0.0 0.0 0.00 0.18 0.01 68 1013.4
20260502202509 41 316 0.0 1.0 0.00 0.18 0.01 69 1013.5
20260502202010 41 323 0.0 1.0 0.00 0.18 0.01 68 1013.5
20260502201508 41 285 0.0 0.0 0.00 0.18 0.01 69 1013.5
20260502201008 41 303 0.0 0.0 0.00 0.18 0.01 68 1013.5
20260502200508 41 283 0.0 0.0 0.00 0.18 0.01 70 1013.6
20260502200008 41 307 0.0 0.0 0.00 0.18 0.01 69 1013.5
20260502195508 41 293 0.0 0.0 0.00 0.18 0.01 70 1013.5
20260502195007 41 286 0.0 0.0 0.00 0.18 0.01 70 1013.6
20260502194507 41 258 0.0 1.0 0.00 0.18 0.01 70 1013.6
20260502194007 41 328 0.0 0.0 0.00 0.18 0.01 70 1013.7
20260502193507 41 1 0.0 0.0 0.00 0.18 0.01 72 1013.7
20260502193007 41 354 0.0 0.0 0.00 0.18 0.01 72 1013.7
20260502192510 41 17 0.0 0.0 0.00 0.18 0.01 71 1013.7
20260502192007 41 344 0.0 0.0 0.00 0.18 0.01 69 1013.8
20260502191506 41 39 0.0 0.0 0.00 0.18 0.01 70 1013.8
20260502191009 41 311 0.0 0.0 0.00 0.18 0.01 69 1013.8
20260502190506 42 309 0.0 0.0 0.00 0.18 0.01 69 1013.8
20260502190008 42 351 0.0 0.0 0.00 0.18 0.01 68 1013.7
20260502185507 42 330 0.0 0.0 0.00 0.18 0.01 67 1013.7
20260502185005 42 32 0.0 0.0 0.00 0.18 0.01 65 1013.7
20260502184509 42 303 0.0 0.0 0.00 0.18 0.01 64 1013.6
20260502184005 42 275 0.0 5.0 0.00 0.18 0.01 62 1013.7
20260502183509 42 238 0.0 5.0 0.00 0.18 0.01 60 1013.8
20260502183009 43 313 0.0 0.0 0.00 0.18 0.01 60 1013.6
20260502182506 43 269 0.0 1.0 0.00 0.18 0.01 59 1013.6
20260502182005 43 264 0.0 2.0 0.00 0.18 0.01 60 1013.6
20260502181504 43 289 0.0 8.0 0.00 0.18 0.01 60 1013.5
20260502181004 43 316 0.0 8.0 0.00 0.18 0.01 61 1013.4
20260502180507 43 309 0.0 2.0 0.00 0.18 0.01 61 1013.4
20260502170501 43 273 1.0 10.0 0.00 0.18 0.01 59 1013.5
20260502164059 42 280 0.0 6.0 0.00 0.18 0.01 59 1013.6
20260502163603 42 290 0.0 3.0 0.00 0.18 0.01 60 1013.7
20260502163111 42 188 0.0 3.0 0.00 0.18 0.01 61 1013.6
20260502162558 42 285 0.0 4.0 0.00 0.18 0.01 61 1013.7
20260502162059 42 293 0.0 6.0 0.00 0.18 0.01 60 1013.8
20260502161600 43 325 0.0 10.0 0.00 0.18 0.01 62 1013.7
20260502161056 43 310 0.0 10.0 0.00 0.18 0.01 62 1013.6
20260502160556 42 264 0.0 6.0 0.00 0.18 0.01 62 1013.6
20260502152052 42 286 0.0 1.0 0.00 0.18 0.01 73 1013.9
20260502151551 41 282 0.0 1.0 0.00 0.18 0.01 71 1014.0
20260502151049 41 266 0.0 9.0 0.00 0.18 0.01 72 1014.0
20260502150549 41 293 1.0 9.0 0.00 0.18 0.01 70 1014.0
20260502130533 37 246 0.0 5.0 0.00 0.18 0.01 88 1014.4
20260502123531 36 242 0.0 0.0 0.00 0.18 0.01 92 1014.5
20260502123031 36 275 0.0 1.0 0.00 0.18 0.01 92 1014.6
20260502122529 36 255 0.0 0.0 0.00 0.18 0.01 93 1014.5
20260502122030 36 266 0.0 0.0 0.00 0.18 0.01 93 1014.4
20260502121529 36 279 0.0 1.0 0.00 0.18 0.01 93 1014.4
20260502121029 36 271 0.0 1.0 0.00 0.18 0.01 93 1014.4
20260502120529 36 266 0.0 0.0 0.00 0.18 0.01 93 1014.4
20260502115529 36 337 0.0 1.0 0.00 0.18 0.01 93 1014.4
20260502115028 36 282 0.0 1.0 0.00 0.18 0.01 93 1014.4
20260502114526 36 304 0.0 0.0 0.00 0.18 0.01 94 1014.4
20260502114026 37 157 0.0 0.0 0.00 0.18 0.01 94 1014.3
20260502113528 37 280 0.0 0.0 0.00 0.18 0.01 93 1014.2
20260502113026 37 269 0.0 0.0 0.00 0.18 0.01 93 1014.2
20260502112523 37 275 0.0 0.0 0.00 0.18 0.01 93 1014.1
20260502112023 37 273 0.0 0.0 0.00 0.18 0.01 93 1013.9
20260502111522 37 265 0.0 0.0 0.00 0.18 0.01 93 1013.8
20260502111022 37 259 0.0 1.0 0.00 0.18 0.01 93 1013.7
20260502110521 37 269 0.0 0.0 0.00 0.18 0.01 93 1013.6
20260502110020 37 271 0.0 0.0 0.00 0.18 0.01 93 1013.7
20260502105520 37 255 0.0 0.0 0.00 0.18 0.01 93 1013.6
20260502105019 37 268 0.0 0.0 0.00 0.18 0.01 93 1013.5
20260502104519 37 262 0.0 0.0 0.00 0.18 0.01 93 1013.5
20260502104019 37 294 0.0 0.0 0.00 0.18 0.01 93 1013.5
20260502103520 37 299 0.0 0.0 0.00 0.18 0.01 93 1013.4
20260502103019 37 259 0.0 0.0 0.00 0.18 0.01 93 1013.5
20260502102519 37 261 0.0 1.0 0.00 0.18 0.01 93 1013.5
20260502102017 37 254 0.0 1.0 0.00 0.18 0.01 93 1013.5
20260502101517 37 257 0.0 0.0 0.00 0.18 0.01 93 1013.4
20260502101015 37 299 0.0 0.0 0.00 0.18 0.01 93 1013.3
20260502100514 37 261 0.0 0.0 0.00 0.18 0.01 93 1013.2
20260502091509 38 240 0.0 0.0 0.00 0.18 0.01 93 1012.8
20260502091010 38 251 0.0 0.0 0.00 0.18 0.01 93 1012.7
20260502090509 38 228 0.0 0.0 0.00 0.18 0.01 93 1012.7
20260502071501 37 140 0.0 0.0 0.00 0.18 0.01 93 1012.5
20260502071002 37 147 0.0 0.0 0.00 0.18 0.01 93 1012.7
20260502070502 36 166 0.0 0.0 0.00 0.18 0.01 93 1012.7
20260502065601 36 214 0.0 0.0 0.00 0.18 0.01 93 1012.4
20260502065100 36 237 0.0 0.0 0.00 0.18 0.01 93 1012.4
20260502064600 36 237 0.0 0.0 0.00 0.18 0.01 93 1012.3
20260502064059 36 169 0.0 0.0 0.00 0.18 0.01 93 1012.3
20260502063602 37 169 0.0 0.0 0.00 0.18 0.01 93 1012.4
20260502063059 37 172 0.0 0.0 0.00 0.18 0.01 93 1012.3
20260502062558 37 162 0.0 0.0 0.00 0.18 0.01 93 1012.0
20260502062056 37 162 0.0 0.0 0.00 0.18 0.01 93 1012.2
20260502061555 37 163 0.0 0.0 0.00 0.18 0.01 93 1012.4
20260502061054 37 162 0.0 0.0 0.00 0.18 0.01 93 1012.3
20260502060554 37 162 0.0 0.0 0.00 0.18 0.01 93 1012.4
20260502060100 37 163 0.0 0.0 0.00 0.18 0.01 93 1012.4
20260502055556 37 163 0.0 0.0 0.00 0.18 0.01 93 1012.5
20260502055053 37 163 0.0 0.0 0.00 0.18 0.01 93 1012.5
20260502054556 37 162 0.0 0.0 0.00 0.18 0.01 93 1012.6
20260502054051 37 175 0.0 0.0 0.00 0.18 0.01 93 1012.7
20260502053551 37 165 0.0 0.0 0.00 0.18 0.01 93 1012.9
20260502053051 37 183 0.0 0.0 0.00 0.18 0.01 93 1012.9
20260502052555 37 234 0.0 0.0 0.00 0.18 0.01 93 1013.0
20260502052054 37 151 0.0 0.0 0.00 0.18 0.01 93 1012.9
20260502051549 37 159 0.0 0.0 0.01 0.18 0.01 93 1012.9
20260502051049 37 209 0.0 0.0 0.01 0.18 0.01 93 1012.9
20260502050549 37 183 0.0 0.0 0.01 0.18 0.01 93 1012.9
20260502050047 37 238 0.0 0.0 0.01 0.18 0.01 93 1012.9
20260502045550 37 238 0.0 0.0 0.01 0.18 0.01 93 1012.8
20260502045047 37 266 0.0 0.0 0.01 0.18 0.01 93 1012.8
20260502044552 37 266 0.0 0.0 0.01 0.18 0.01 93 1012.8
20260502044046 37 273 0.0 0.0 0.01 0.18 0.01 93 1012.8
20260502043546 37 289 0.0 0.0 0.01 0.18 0.01 93 1012.8
20260502043052 37 292 0.0 0.0 0.01 0.18 0.01 93 1012.9
20260502042545 37 299 0.0 0.0 0.01 0.18 0.01 93 1012.8
20260502042045 37 5 0.0 0.0 0.02 0.18 0.01 93 1012.8
20260502041548 37 6 0.0 0.0 0.01 0.17 0.00 93 1012.8
20260502041043 37 5 0.0 0.0 0.01 0.17 0.00 93 1012.8
20260502040543 37 5 0.0 0.0 0.01 0.17 0.00 93 1012.7
20260502040042 37 5 0.0 0.0 0.02 0.17 0.00 93 1012.7
20260502035544 37 5 0.0 0.0 0.02 0.17 0.17 93 1012.7
20260502035042 37 5 0.0 0.0 0.02 0.17 0.17 93 1012.7
20260502034542 37 357 0.0 0.0 0.03 0.17 0.17 93 1012.7
20260502034042 37 357 0.0 0.0 0.03 0.17 0.17 93 1012.7
20260502033541 37 325 0.0 0.0 0.03 0.17 0.17 93 1012.6
20260502033045 37 307 0.0 0.0 0.04 0.17 0.17 93 1012.6
20260502032544 37 9 0.0 0.0 0.04 0.17 0.17 93 1012.6
20260502032041 37 319 0.0 0.0 0.03 0.16 0.16 93 1012.7
20260502031541 37 324 0.0 0.0 0.04 0.16 0.16 93 1012.6
20260502031043 37 3 0.0 0.0 0.04 0.16 0.16 93 1012.6
20260502030541 37 5 0.0 0.0 0.04 0.16 0.16 93 1012.6
20260502030041 37 358 0.0 0.0 0.04 0.15 0.15 93 1012.6
20260502025540 37 354 0.0 0.0 0.04 0.15 0.15 93 1012.7
20260502025039 37 3 0.0 0.0 0.04 0.15 0.15 93 1012.6
20260502024541 37 347 0.0 0.0 0.03 0.14 0.14 93 1012.6
20260502024040 37 72 0.0 0.0 0.04 0.14 0.14 93 1012.6
20260502023543 37 356 0.0 0.0 0.04 0.14 0.14 93 1012.6
20260502023040 37 349 0.0 0.0 0.03 0.13 0.13 93 1012.7
20260502022540 38 1 0.0 0.0 0.03 0.13 0.13 93 1012.6
20260502022041 38 341 0.0 0.0 0.04 0.13 0.13 93 1012.6
20260502021540 38 337 0.0 0.0 0.03 0.12 0.12 93 1012.6
20260502021040 38 330 0.0 0.0 0.04 0.12 0.12 93 1012.5
20260502020537 38 334 0.0 0.0 0.04 0.12 0.12 93 1012.5
20260502020042 38 7 0.0 0.0 0.04 0.11 0.11 93 1012.5
20260502015537 38 32 0.0 0.0 0.04 0.11 0.11 93 1012.5
20260502015039 38 3 0.0 0.0 0.05 0.11 0.11 93 1012.5
20260502014551 38 337 0.0 0.0 0.05 0.11 0.11 93 1012.6
20260502014036 38 22 0.0 0.0 0.05 0.10 0.10 93 1012.5
20260502013536 38 354 0.0 0.0 0.05 0.10 0.10 93 1012.5
20260502013036 38 42 0.0 0.0 0.06 0.10 0.10 93 1012.5
20260502012536 38 21 0.0 0.0 0.07 0.10 0.10 93 1012.4
20260502012036 39 13 0.0 0.0 0.06 0.09 0.09 93 1012.4
20260502011544 39 355 0.0 0.0 0.06 0.09 0.09 93 1012.3
20260502011036 39 97 0.0 0.0 0.06 0.08 0.08 93 1012.2
20260502010535 39 342 0.0 0.0 0.06 0.08 0.08 93 1012.2
20260502010035 39 15 0.0 0.0 0.06 0.07 0.07 93 1012.2
20260502005535 39 357 0.0 0.0 0.06 0.07 0.07 93 1012.2
20260502005035 39 303 0.0 0.0 0.05 0.06 0.06 93 1012.2
20260502004535 40 317 0.0 0.0 0.05 0.06 0.06 93 1012.1
20260502004034 40 321 0.0 0.0 0.04 0.05 0.05 92 1012.1
20260502003536 40 303 0.0 0.0 0.04 0.05 0.05 92 1012.0
20260502003034 40 310 0.0 0.0 0.03 0.04 0.04 92 1012.0
20260502002537 41 285 0.0 0.0 0.03 0.03 0.03 92 1011.9
20260502002035 41 328 0.0 0.0 0.03 0.03 0.03 92 1011.8
20260502001533 41 307 0.0 0.0 0.03 0.03 0.03 92 1011.7
20260502001033 41 279 0.0 0.0 0.02 0.02 0.02 92 1011.7
20260502000532 41 293 0.0 0.0 0.02 0.02 0.02 92 1011.7
20260502000046 40 345 0.0 0.0 0.01 0.01 0.01 92 1011.6
20260501235532 40 349 0.0 0.0 0.01 0.01 0.01 91 1011.6
20260501235032 41 349 0.0 0.0 0.01 0.01 0.01 91 1011.6
20260501234532 41 337 0.0 0.0 0.01 0.01 0.01 91 1011.5
20260501234032 41 337 0.0 0.0 0.01 0.01 0.01 90 1011.5
20260501233534 41 22 0.0 0.0 0.01 0.01 0.01 90 1011.4
20260501233032 41 15 0.0 0.0 0.01 0.01 0.01 89 1011.4
20260501232531 42 351 0.0 0.0 0.00 0.00 0.00 88 1011.4
20260501232031 42 48 0.0 0.0 0.00 0.00 0.00 88 1011.4
20260501231530 43 31 0.0 0.0 0.00 0.00 0.00 86 1011.3
20260501231030 44 317 0.0 0.0 0.00 0.00 0.00 85 1011.3
20260501230532 44 39 0.0 0.0 0.00 0.00 0.00 83 1011.3